Overview Statistics Trail Chart Weather Telemetry Raw packets
 

This is the latest recevied weather packets stored in our database for station/object N3LF. If no packets are shown the sender has not sent any weather packets the latest 10 day(s).

<< 102 103 104 105 106 107 108 >>
Time Temp. Humidity Pressure Rain* Wind** Luminosity Snow
1787852586 28.89° C 78% 1018.2 hPa 0 mm - 679 W/m² -
1787852285 30° C 77% 1018.3 hPa 0 mm - 677 W/m² -
1787851985 28.89° C 78% 1018.3 hPa 0 mm - 698 W/m² -
1787851684 28.89° C 76% 1018.2 hPa 0 mm - 700 W/m² -
1787851384 28.33° C 80% 1018.3 hPa 0 mm - 680 W/m² -
1787851080 28.89° C 77% 1018.6 hPa 0 mm - 678 W/m² -
1787850775 28.89° C 76% 1018.5 hPa 0 mm - 676 W/m² -
1787850471 28.89° C 77% 1018.5 hPa 0 mm - 650 W/m² -
1787850166 27.78° C 79% 1018.6 hPa 0 mm - 662 W/m² -
1787849866 27.78° C 80% 1018.6 hPa 0 mm - 652 W/m² -
1787849567 27.22° C 81% 1018.8 hPa 0 mm - 647 W/m² -
1787849260 27.78° C 83% 1018.7 hPa 0 mm - 636 W/m² -
1787848959 28.33° C 79% 1018.8 hPa 0 mm - 640 W/m² -
1787848654 27.78° C 81% 1018.8 hPa 0 mm - 632 W/m² -
1787848350 27.22° C 84% 1018.9 hPa 0 mm - 633 W/m² -
1787848050 27.78° C 83% 1019.1 hPa 0 mm - 621 W/m² -
1787847750 26.67° C 85% 1019.1 hPa 0 mm - 616 W/m² -
1787847450 27.22° C 86% 1019.1 hPa 0 mm - 619 W/m² -
1787847146 26.67° C 86% 1019 hPa 0 mm - 615 W/m² -
1787846841 26.67° C 85% 1019 hPa 0 mm - 599 W/m² -
1787846536 26.67° C 85% 1018.8 hPa 0 mm - 598 W/m² -
1787846232 26.67° C 86% 1018.9 hPa 0 mm - 586 W/m² -
1787845927 26.11° C 87% 1018.9 hPa 0 mm - 581 W/m² -
1787845623 26.67° C 86% 1018.8 hPa 0 mm - 571 W/m² -
1787845317 27.22° C 84% 1018.8 hPa 0 mm - 561 W/m² -

* Rain latest hour (hover to see other rain measurements)
** Current wind speed in m/s (hover to see current wind gust speed)